This is the latest recevied weather packets stored in our database for station/object K1WJY. If no packets are shown the sender has not sent any weather packets the latest 10 day(s).
| Time | Temp. | Humidity | Pressure | Rain* | Wind** | Luminosity | Snow |
|---|---|---|---|---|---|---|---|
| 1788151190 | 14.44° C | 99% | 1018 hPa | 0 mm | - | 0 W/m² | - |
| 1788150890 | 14.44° C | 99% | 1017.9 hPa | 0 mm | - | 0 W/m² | - |
| 1788150591 | 14.44° C | 99% | 1017.9 hPa | 0 mm | - | 0 W/m² | - |
| 1788150290 | 14.44° C | 99% | 1018 hPa | 0 mm | - | 0 W/m² | - |
| 1788149990 | 14.44° C | 99% | 1017.9 hPa | 0 mm | - | 0 W/m² | - |
| 1788149685 | 15° C | 99% | 1017.8 hPa | 0 mm | - | 0 W/m² | - |
| 1788149380 | 15° C | 99% | 1017.8 hPa | 0 mm | - | 0 W/m² | - |
| 1788149075 | 15° C | 99% | 1017.6 hPa | 0 mm | - | 0 W/m² | - |
| 1788148772 | 15° C | 99% | 1017.6 hPa | 0 mm | - | 0 W/m² | - |
| 1788148472 | 15° C | 99% | 1017.7 hPa | 0 mm | - | 0 W/m² | - |
| 1788148167 | 15° C | 99% | 1017.6 hPa | 0 mm | - | 0 W/m² | - |
| 1788147862 | 15° C | 99% | 1017.6 hPa | 0 mm | - | 0 W/m² | - |
| 1788147557 | 15° C | 99% | 1017.9 hPa | 0 mm | - | 0 W/m² | - |
| 1788147253 | 15.56° C | 99% | 1017.7 hPa | 1.78 mm | - | 0 W/m² | - |
| 1788146948 | 15.56° C | 99% | 1017.6 hPa | 1.78 mm | - | 0 W/m² | - |
| 1788146648 | 15.56° C | 99% | 1017.4 hPa | 0 mm | - | 0 W/m² | - |
| 1788146343 | 15.56° C | 99% | 1017.2 hPa | 0 mm | - | 0 W/m² | - |
| 1788146042 | 15.56° C | 99% | 1017.1 hPa | 0 mm | - | 0 W/m² | - |
| 1788145737 | 15.56° C | 99% | 1017.6 hPa | 0 mm | - | 0 W/m² | - |
| 1788145436 | 15.56° C | 99% | 1017 hPa | 0 mm | - | 0 W/m² | - |
| 1788145135 | 15.56° C | 99% | 1016.9 hPa | 1.27 mm | - | 0 W/m² | - |
| 1788144834 | 15.56° C | 99% | 1017.1 hPa | 3.05 mm | - | 0 W/m² | - |
| 1788144530 | 15.56° C | 99% | 1017.3 hPa | 4.83 mm | - | 0 W/m² | - |
| 1788144229 | 15.56° C | 99% | 1017.8 hPa | 4.83 mm | - | 0 W/m² | - |
| 1788143929 | 15.56° C | 99% | 1017.7 hPa | 3.05 mm | - | 0 W/m² | - |
* Rain latest hour (hover to see other rain measurements)
** Current wind speed in m/s (hover to see current wind gust speed)